sat.trackr.live / text

‹ back to catalog

STARLINK-34289

NORAD 64225 · 2025-117Y

PAYLOAD ACTIVE UNKNOWN

§ Identity

Operator
Country
US
Launch date
2025-05-31
Launch site
AFWTR
Launch vehicle
Mass (kg)
RCS (m²)

Purposes: comms

External: N2YO · Heavens-Above · Gunter

§ Orbital elements

Epoch: 2026-09-20T03:35:55.972896Z

Period
93.85 min
Inclination
53.1556°
Eccentricity
0.0001193
Mean motion
15.34406814 rev/d
Perigee alt
461.9 km
Apogee alt
463.5 km
Semi-major
6,840.8 km
B*
4.2513e-4
RAAN
213.1497°
Arg perigee
94.6766°
Mean anomaly
265.4373°
Rev number
7,437

§ Raw data

STARLINK-342891 64225U 25117Y   26263.14995339  .00014017  00000+0  42513-3 0  99972 64225  53.1556 213.1497 0001193  94.6766 265.4373 15.34406814 74372

JSON: /api/v1/satellites/64225 · /tle

For live sub-satellite position, see the globe view (requires WebGL).

§ Visibility from observer

Set your observer location to see the next 7 days of passes ≥ 10°. The values pass through the URL so the page stays shareable.

No JS? Fill the form by hand. The geolocation button needs JavaScript.